Regional Weather Roundup
Issued by NWS Cleveland, OH

Home | Current Version | Previous Version | Graphics & Text | Print | Product List | Glossary On
Versions: 1 2 3 4 5 6 7 8 9 10 11 12 13 14 15 16 17 18 19 20 21 22 23 24 25 26 27 28 29 30 31 32 33 34 35 36 37 38 39 40 41 42 43 44 45 46 47 48 49 50
000
ASUS41 KCLE 290510
RWRCLE
OHIO REGIONAL WEATHER ROUNDUP
NATIONAL WEATHER SERVICE WILMINGTON, OH
100 AM EDT WED JUL 29 2015

NOTE: "FAIR" INDICATES FEW OR NO CLOUDS BELOW 12,000 FEET WITH NO
SIGNIFICANT WEATHER AND/OR OBSTRUCTIONS TO VISIBILITY.

OHZ001>008-015>018-024>027-034-035-043-044-290600-
   NORTHWEST OHIO

CITY           SKY/WX    TMP DP  RH WIND       PRES   REMARKS
DEFIANCE       NOT AVBL
FINDLAY        NOT AVBL
TOLEDO EXPRESS NOT AVBL
TOLEDO EXEC    NOT AVBL
LIMA           CLEAR     74  67  78 SE7       30.00F
$$

OHZ009>014-019>023-028>033-038-089-290600-
   NORTHEAST OHIO

CITY           SKY/WX    TMP DP  RH WIND       PRES   REMARKS
CLE-HOPKINS    PTCLDY    71  61  70 CALM      30.04R
CLE-LAKEFRONT  CLEAR     78  59  51 CALM      30.01R
CUY CO. ARPT   NOT AVBL
LORAIN-ELYRIA  CLEAR     67  63  87 S5        30.02F
ASHTABULA      CLEAR     66  63  90 CALM      30.04R
AKRON-CANTON   PTCLDY    73  65  75 NE6       30.04R
WOOSTER        CLEAR     66  64  93 N3        30.04S
MANSFIELD      PTCLDY    69  66  90 E6        30.04F
YOUNGSTOWN     PTCLDY    66  63  90 E6        30.04R
$$

OHZ042-051>053-060>062-070>072-077>081-290600-
  SOUTHWEST OHIO

CITY           SKY/WX    TMP DP  RH WIND       PRES   REMARKS
CINC-COVINGTON CLEAR     76  73  91 CALM      30.00F
CINC-LUNKEN    CLEAR     75  75 100 CALM      29.99F FOG
HAMILTON       LGT RAIN  74  72  93 CALM      29.99F
DAYTON         PTCLDY    77  71  82 SE5       30.01F
WRIGHT-PAT AFB CLEAR     75  72  90 CALM      30.00F
DAYTON GENERAL CLEAR     76  71  85 CALM      30.00F
WILMINGTON     CLEAR     72  70  93 CALM      30.01F FOG
$$

OHZ036-037-039>041-045>050-054>059-063>069-073>076-082>088-290600-
  CENTRAL AND SOUTHEAST OHIO

CITY           SKY/WX    TMP DP  RH WIND       PRES   REMARKS
COLUMBUS       PTCLDY    74  69  85 NE3       30.00S
OSU AIRPORT    PTCLDY    74  69  85 CALM      30.01S
BOLTON FIELD   PTCLDY    72  71  98 CALM      30.01F
RICKENBACK AFB PTCLDY    74  71  91 CALM      30.00S
NEWARK         PTCLDY    71  69  93 CALM      30.01S FOG
MARION         CLEAR     72  66  81 CALM      30.03S
LANCASTER      CLEAR     70  68  93 CALM      30.01S FOG
ZANESVILLE     CLEAR     72  69  90 CALM      30.01R FOG
NEW PHILLY     MOCLDY    71  69  93 CALM      30.02S FOG
$$



USA.gov is the U.S. government's official web portal to all federal, state and local government web resources and services.